www.pogodaiklimat.ru

Погода и климат >> Архив погоды >> Пакистан >> Рохри


ПОГОДА в Рохри

  • Прогноз погоды в Рохри
  • Монитор погоды в Рохри

АРХИВ ПОГОДЫ в Рохри

Время (UTC), дата Ветер
(напр.,м/с)
 
Видим.   Явления Облачность Т
(С)
Тd
(С)
f
(%)
Тe
(С)
Тes
(С)
Комфортность P
(гПа)
Po
(гПа)
Тmin
(С)
Tmax
(С)
R
(мм)
R24
(мм)
S
(см)
21 18.08 ЮВ 2 4000 м мгла ясно +31.0 +22.3 60 +40 +40 очень
душно
1001.3 1000.0
00 19.08 ЮВ 2 4000 м мгла ясно +29.0 +21.6 64 +37 +37 очень
душно
1002.5 995.0
03 19.08 ЮВ 2 4000 м мгла ясно +30.0 +22.8 65 +40 +44 очень
душно
1003.7 996.1
06 19.08 ЮВ 1 4000 м мгла ясно +34.5 +23.9 54 +46 +69 опасность
перегрева
1004.8 997.4
09 19.08 ЮЗ 1 4000 м мгла ясно +38.0 +23.1 43 +48 +68 опасность
перегрева
1002.7 1000.0
12 19.08 ЮВ 1 4000 м мгла ясно +40.0 +23.1 38 +49 +54 опасность
перегрева
1001.0 993.8 +40.5
15 19.08 ЮЗ 2 4000 м мгла ясно +36.0 +23.2 48 +46 +46 опасность
перегрева
1002.0 994.5
18 19.08 ЮЗ 2 4000 м мгла ясно +32.0 +23.4 60 +43 +43 опасность
перегрева
1004.0 996.5
21 19.08 ЮЗ 3 4000 м мгла ясно +30.0 +22.0 62 +39 +39 очень
душно
1003.1 1000.0
00 20.08 ЮЗ 4 4000 м мгла ясно +28.0 +21.3 67 +35 +35 очень
душно
1004.1 996.5
03 20.08 ЮЗ 1 4000 м мгла ясно +30.0 +22.8 65 +40 +45 очень
душно
1004.9 997.3
06 20.08 ЮЗ 1 4000 м мгла ясно +35.0 +25.3 57 +49 +72 опасность
перегрева
1006.0 998.6
09 20.08 СВ 1 4000 м мгла ясно +37.5 +24.2 47 +49 +71 опасность
перегрева
1003.2 1000.0
12 20.08 штиль 0 4000 м мгла ясно +39.0 +24.4 44 +51 +56 опасность
перегрева
1001.4 994.1 +39.5
15 20.08 штиль 0 4000 м мгла ясно +36.5 +24.6 51 +49 +49 опасность
перегрева
1001.8 994.3
18 20.08 ЮВ 1 4000 м мгла ясно +34.0 +25.7 62 +49 +49 опасность
перегрева
1002.6 995.2
21 20.08 ЮВ 2 4000 м мгла ясно +31.0 +23.9 66 +43 +43 опасность
перегрева
1001.8 1000.0
00 21.08 ЮВ 1 4000 м мгла ясно +29.0 +22.4 68 +38 +38 очень
душно
1003.3 995.7
03 21.08 ЮВ 1 4000 м мгла ясно +29.0 +23.2 71 +39 +44 очень
душно
1003.7 996.1
06 21.08 СВ 1 4000 м мгла ясно +35.0 +25.3 57 +49 +72 опасность
перегрева
1004.1 996.7
09 21.08 ЮЗ 1 4000 м ясно +40.0 +25.3 44 +54 +75 опасность
перегрева
1001.2 1000.0
12 21.08 ЮЗ 1 4000 м ясно +40.0 +23.1 38 +49 +53 опасность
перегрева
999.0 991.8 +41.5
15 21.08 штиль 0 4000 м мгла ясно +37.0 +24.4 49 +49 +49 опасность
перегрева
999.4 1000.0
18 21.08 ЮВ 1 4000 м мгла ясно +32.0 +25.0 67 +46 +46 опасность
перегрева
1001.2 993.8
21 21.08 ЮВ 1 4000 м мгла ясно +29.0 +21.6 64 +37 +37 очень
душно
1000.3 1000.0
00 22.08 ЮВ 2 4000 м мгла ясно +27.0 +21.0 70 +34 +34 очень
душно
1002.1 994.5
03 22.08 СВ 1 4000 м мгла ясно +28.0 +22.1 70 +36 +41 очень
душно
1002.7 995.1
06 22.08 СВ 1 4000 м мгла ясно +34.0 +24.9 59 +47 +70 опасность
перегрева
1002.9 995.5
09 22.08 С 1 4000 м мгла ясно +37.0 +24.4 49 +49 +70 опасность
перегрева
1000.5 1000.0
12 22.08 СВ 1 4000 м мгла ясно +38.5 +26.2 50 +54 +59 опасность
перегрева
998.7 991.4 +39.1
15 22.08 штиль 0 4000 м мгла ясно +36.0 +24.9 53 +49 +49 опасность
перегрева
999.5 1000.0
18 22.08 ЮЗ 2 4000 м мгла ясно +33.5 +25.1 62 +48 +48 опасность
перегрева
1000.8 993.2
21 22.08 ЮЗ 1 4000 м мгла ясно +32.0 +25.0 67 +46 +46 опасность
перегрева
1000.4 1000.0
00 23.08 ЮЗ 1 4000 м мгла ясно +29.0 +23.2 71 +39 +39 очень
душно
1001.1 993.6
03 23.08 Ю 2 4000 м мгла ясно +29.5 +23.8 71 +40 +45 очень
душно
1002.2 994.7
06 23.08 ЮВ 1 4000 м мгла ясно +34.0 +24.1 56 +46 +68 опасность
перегрева
1002.7 1000.0
09 23.08 СВ 1 4000 м мгла ясно +38.0 +23.4 43 +48 +68 опасность
перегрева
1001.0 1000.0
12 23.08 СВ 1 10 км ясно +38.5 +24.6 45 +50 +55 опасность
перегрева
999.3 992.0 +39.1
15 23.08 штиль 0 4000 м мгла ясно +36.0 +24.9 53 +49 +49 опасность
перегрева
999.4 991.9
18 23.08 Ю 1 4000 м мгла ясно +34.0 +24.1 56 +46 +46 опасность
перегрева
1001.2 1000.0
00 24.08 ЮЗ 1 4000 м мгла ясно +31.0 +23.9 66 +43 +43 опасность
перегрева
1001.2 993.8
03 24.08 ЮВ 3 4000 м мгла ясно +29.5 +25.3 78 +43 +46 опасность
перегрева
1002.5 995.0
06 24.08 ЮВ 1 4000 м мгла ясно +34.0 +25.7 62 +49 +71 опасность
перегрева
1002.4 1000.0
09 24.08 СВ 1 4000 м мгла ясно +37.0 +24.4 49 +49 +69 опасность
перегрева
1000.5 1000.0
12 24.08 СВ 1 10 км ясно +38.5 +22.9 41 +48 +52 опасность
перегрева
998.4 991.1 +39.1
15 24.08 штиль 0 4000 м мгла ясно +35.5 +24.3 52 +47 +47 опасность
перегрева
999.7 1000.0
18 24.08 ЮВ 1 4000 м мгла ясно +34.0 +24.1 56 +46 +46 опасность
перегрева
999.9 1000.0
21 24.08 ЮВ 1 4000 м мгла ясно +32.0 +25.0 67 +46 +46 опасность
перегрева
999.4 1000.0
00 25.08 ЮВ 2 4000 м мгла ясно +30.0 +24.3 72 +42 +42 опасность
перегрева
999.9 992.4
03 25.08 ЮВ 1 4000 м мгла ясно +28.5 +24.2 78 +40 +45 очень
душно
1001.5 994.0
06 25.08 ЮВ 2 4000 м мгла ясно +34.0 +24.1 56 +46 +63 опасность
перегрева
1001.9 994.3
09 25.08 ЮВ 1 4000 м мгла ясно +37.5 +23.4 45 +48 +69 опасность
перегрева
1000.1 1000.0
12 25.08 СВ 1 4000 м мгла ясно +39.0 +23.5 41 +49 +53 опасность
перегрева
997.9 990.6 +39.5
15 25.08 штиль 0 4000 м мгла ясно +36.5 +27.0 58 +54 +54 опасность
перегрева
999.2 1000.0
18 25.08 ЮВ 1 4000 м мгла ясно +34.0 +24.1 56 +46 +46 опасность
перегрева
1000.7 1000.0

 

Местоположение метеостанции Рохри (Пакистан): широта 27.67 долгота 68.90 высота над уровнем моря 68 м.

В архиве по умолчанию представлена погода в Рохри за последнюю неделю. Архивные данные за месяц целиком и за предыдущие месяцы, начиная с января 2011 года, Вы можете получить, выбрав интересующий диапазон дат из раскрывающегося списка и нажав кнопку "Ввод!".


*Определитесь, кто Вы:
робот инопланетянин человек

Внимание! Время в таблицах - всемирное. Для получения местного времени необходимо прибавить поправку, которая равна 5 ч.

Смотрите также архив погоды в соседних городах и на ближайших метеорологических станциях:

Погода в Суккуре (Пакистан) (14 км)
Погода в Ларкане (Пакистан) (73 км)
Погода в Джейкобабаде (Пакистан) (82 км)
Погода в Мохенджо-Даро (Пакистан) (85 км)
Погода в Пад Идан (Пакистан) (119 км)
Погода в Рахим Яр Хан (Пакистан) (163 км)
Погода в Навабшахе (Пакистан) (166 км)
Погода в Ханпуре (Пакистан) (206 км)
Погода в Джайсалмере (Раджастхан, Индия) (217 км)
Погода в Хуздаре (Пакистан) (224 км)

Пояснения к столбцам:

Ветер - указаны скорость ветра в м/с - средняя за 10 мин, порывы в срок и между сроками (в фигурных скобках) и направление, откуда дует ветер: С - северный, СВ - северо-восточный, В - восточный, ЮВ - юго-восточный, Ю - южный, ЮЗ - юго-западный, З - западный, СЗ - северо-западный.
Видимость - горизонтальная дальность видимости в метрах или километрах. При видимости от 1 до 10 км при отсутствии осадков обычно наблюдается дымка, при ухудшении видимости до 1 км и менее - туман. В сухую погоду видимость может ухудшаться дымом, пылью или мглою.
Явления - указаны атмосферные явления, наблюдавшиеся в срок или в последний час перед сроком; фигурными скобками обозначены явления, наблюдавшиеся между сроками (за 1-3 часа до срока); квадратными скобками обозначены град или гололедные отложения с указанием их диаметра в мм.
Облачность - указаны через наклонную черту общая и нижняя облачность в баллах и высота нижней границы облаков в метрах; квадратными скобками обозначены формы облаков: Ci - перистые, Cs - перисто-слоистые, Cc - перисто-кучевые, Ac - высококучевые, As - высокослоистые, Sc - слоисто-кучевые, Ns - слоисто-дождевые, Cu - кучевые, Cb - кучево-дождевые. Подробнее классификацию облаков см. в Атласе облаков (PDF).
T - Температура воздуха - температура, измеренная на высоте 2 м над землей.
Td - Температура точки росы - температура, при понижении до которой содержащийся в воздухе водяной пар достигнет насыщения.
f - Относительная влажность воздуха - влажноcть воздуха, измеренная на высоте 2 м над землей.
Te - Эффективная температура - температура, которую ощущает одетый по сезону человек в тени. Характеристика душности погоды. При расчете учитывается влияние влажности воздуха и скорости ветра на теплоощущения человека.
Tes - Эффективная температура на солнце - температура, которую ощущает человек, с поправкой на солнечный нагрев. Характеристика знойности погоды. Зависит от высоты солнца над горизонтом, облачности и скорости ветра. Ночью, в пасмурную погоду, а также при ветре 12 м/с и более поправка равна нулю.
P - Атмосферное давление - приведенное к уровню моря атмосферное давление.
Po - Атмосферное давление - измеренное на уровне метеостанции атмосферное давление.
Tmin - Минимальная температура - минимум температуры воздуха на высоте 2 м над землей.
Tmax - Максимальная температура - максимум температуры воздуха на высоте 2 м над землей.
R - Количество осадков - Количество выпавших осадков за период времени, мм. При наведении курсора мыши на число - период времени, за который выпало указанное количество осадков.
R24 - Количество осадков - Количество выпавших осадков за 24 часа, мм.
S - Снежный покров - Высота снежного покрова, см. При наведении курсора мыши на число - состояние снежного покрова и степень покрытия местности в баллах.